Weather History for Ft Riley, KS

Change the Weather History Date:

Wednesday, August 14, 2013

  Actual Average (KMHK) Record (KMHK)
Temperature  
Mean Temperature 68 °F 78 °F  
Max Temperature 80 °F 90 °F 102 °F (2007)
Min Temperature 57 °F 66 °F 46 °F (2004)
Degree Days  
Heating Degree Days 0 0  
Month to date heating degree days 0  
Since 1 June heating degree days 12  
Since 1 July heating degree days 1  
Cooling Degree Days 4 13  
Month to date cooling degree days 190  
Year to date cooling degree days 996  
Since 1 June cooling degree days 896  
Growing Degree Days 18 (Base 50)    
Moisture  
Dew Point 61 °F    
Average Humidity 85    
Maximum Humidity 100    
Minimum Humidity 53    
Precipitation  
Precipitation 0.00 in 0.15 in 1.63 in (2006)
Month to date precipitation 1.57  
Year to date precipitation 21.83  
Sea Level Pressure  
Sea Level Pressure 30.14 in    
Wind  
Wind Speed 4 mph (ENE)    
Max Wind Speed 12 mph    
Max Gust Speed -    
Visibility 7 miles    
Events Fog , Rain    
T = Trace of Precipitation, MM = Missing Value Source: NWS Daily Summary

Daily Weather History Graph

Daily Weather History Graph

Search for Another Location

Airport:

Trip Planner

Search our weather history database for the weather conditions in past years. The results will help you decide how hot, cold, wet, or windy it might be!

Date:

Astronomy

Aug. 14, 2013 Rise Set
Actual Time 6:39 AM CDT 8:22 PM CDT
Civil Twilight 6:11 AM CDT 8:51 PM CDT
Nautical Twilight 5:36 AM CDT 9:25 PM CDT
Astronomical Twilight 4:59 AM CDT 10:02 PM CDT
Moon 2:35 PM CDT (8/14) 12:04 AM CDT (8/14)
Length of Visible Light 14h 40m
Length of Day
13h 43m
First Quarter, 53% of the Moon is Illuminated
Aug 14
First Quarter
Aug 20
Full
Aug 28
Last Quarter
Sep 5
New
Sep 12
First Quarter

Hourly Weather History & Observations

Time (CDT) Temp. Heat Index Dew Point Humidity Pressure Visibility Wind Dir Wind Speed Gust Speed Precip Events Conditions
12:58 AM 63.0 °F - 62.8 °F 99% 30.14 in 10.0 mi NE 3.5 mph - N/A   Clear
1:18 AM 62.6 °F - 62.6 °F 100% 30.15 in 1.8 mi NE 2.3 mph - N/A   Clear
1:23 AM 62.6 °F - 62.6 °F 100% 30.15 in 1.8 mi ENE 1.2 mph - N/A   Clear
1:28 AM 62.6 °F - 62.6 °F 100% 30.15 in 4.0 mi ENE 1.2 mph - N/A   Clear
1:58 AM 62.6 °F - 62.6 °F 100% 30.14 in 10.0 mi NNE 2.3 mph - N/A   Clear
2:18 AM 60.8 °F - 60.8 °F 100% 30.16 in 3.0 mi NE 3.5 mph - N/A   Clear
2:58 AM 61.0 °F - 61.0 °F 100% 30.14 in 10.0 mi NNE 2.3 mph - N/A   Clear
3:58 AM 59.9 °F - 59.9 °F 100% 30.13 in 10.0 mi NE 3.5 mph - N/A   Clear
4:53 AM 59.0 °F - 59.0 °F 100% 30.15 in 1.5 mi NE 3.5 mph - N/A   Clear
4:58 AM 59.0 °F - 59.0 °F 100% 30.13 in 0.8 mi NE 4.6 mph - N/A   Clear
5:03 AM 59.0 °F - 59.0 °F 100% 30.15 in 0.5 mi NE 4.6 mph - N/A Fog Fog
5:13 AM 59.0 °F - 59.0 °F 100% 30.15 in 1.8 mi NNE 4.6 mph - N/A   Clear
5:18 AM 59.0 °F - 59.0 °F 100% 30.15 in 7.0 mi NE 4.6 mph - N/A   Clear
5:58 AM 59.0 °F - 59.0 °F 100% 30.13 in 7.0 mi NE 2.3 mph - N/A   Clear
6:23 AM 59.0 °F - 59.0 °F 100% 30.15 in 2.5 mi NNE 3.5 mph - N/A   Clear
6:28 AM 59.0 °F - 59.0 °F 100% 30.15 in 1.8 mi NE 3.5 mph - N/A   Clear
6:33 AM 57.2 °F - 57.2 °F 100% 30.15 in 0.5 mi NE 3.5 mph - N/A Fog Fog
6:38 AM 57.2 °F - 57.2 °F 100% 30.15 in 0.2 mi NE 3.5 mph - N/A Fog Fog
6:43 AM 59.0 °F - 59.0 °F 100% 30.15 in 0.2 mi NNE 3.5 mph - N/A Fog Fog
6:48 AM 57.2 °F - 57.2 °F 100% 30.15 in 0.2 mi NNE 3.5 mph - N/A Fog Fog
6:53 AM 59.0 °F - 59.0 °F 100% 30.15 in 1.0 mi NNE 3.5 mph - N/A   Clear
6:58 AM 58.5 °F - 58.5 °F 100% 30.13 in 2.5 mi NNE 3.5 mph - N/A   Clear
7:03 AM 59.0 °F - 59.0 °F 100% 30.16 in 3.0 mi NNE 2.3 mph - N/A   Clear
7:58 AM 61.2 °F - 61.2 °F 100% 30.15 in 10.0 mi North 2.3 mph - N/A   Clear
8:58 AM 65.5 °F - 65.5 °F 100% 30.16 in 10.0 mi NNE 4.6 mph - N/A   Clear
9:58 AM 70.0 °F - 64.8 °F 83% 30.17 in 10.0 mi Variable 2.3 mph - N/A   Clear
10:07 AM 69.8 °F - 64.4 °F 83% 30.19 in 10.0 mi Calm Calm - N/A   Light Drizzle
10:11 AM 69.8 °F - 64.4 °F 83% 30.20 in 10.0 mi Calm Calm - N/A   Clear
10:32 AM 73.4 °F - 64.4 °F 73% 30.19 in 10.0 mi Variable 1.2 mph - N/A   Light Drizzle
10:48 AM 73.4 °F - 64.4 °F 73% 30.19 in 10.0 mi Variable 1.2 mph - N/A   Clear
10:49 AM 73.4 °F - 64.4 °F 73% 30.19 in 10.0 mi Variable 1.2 mph - N/A   Light Drizzle
10:58 AM 74.1 °F - 64.6 °F 72% 30.17 in 10.0 mi Variable 1.2 mph - 0.00 in Rain Light Rain
11:09 AM 75.2 °F - 62.6 °F 65% 30.19 in 10.0 mi Variable 5.8 mph - N/A   Clear
11:58 AM 77.2 °F - 61.9 °F 59% 30.16 in 10.0 mi South 8.1 mph - 0.00 in   Scattered Clouds
12:58 PM 77.7 °F - 61.2 °F 57% 30.15 in 10.0 mi SSW 4.6 mph - N/A   Partly Cloudy
1:58 PM 77.5 °F - 60.4 °F 55% 30.13 in 10.0 mi South 8.1 mph - N/A   Partly Cloudy
2:58 PM 78.6 °F - 60.6 °F 54% 30.12 in 10.0 mi Variable 2.3 mph - N/A   Clear
3:58 PM 80.1 °F 81.2 °F 62.1 °F 54% 30.09 in 10.0 mi SSE 9.2 mph - N/A   Partly Cloudy
4:58 PM 79.0 °F - 60.4 °F 53% 30.08 in 10.0 mi SE 4.6 mph - N/A   Clear
5:58 PM 78.6 °F - 61.3 °F 55% 30.07 in 10.0 mi South 4.6 mph - N/A   Partly Cloudy
6:58 PM 77.5 °F - 60.6 °F 56% 30.05 in 10.0 mi SE 6.9 mph - N/A   Partly Cloudy
7:58 PM 74.5 °F - 62.4 °F 66% 30.06 in 10.0 mi SE 8.1 mph - N/A   Scattered Clouds
8:58 PM 72.9 °F - 62.6 °F 70% 30.06 in 10.0 mi SE 5.8 mph - N/A   Partly Cloudy
9:58 PM 71.6 °F - 62.4 °F 73% 30.08 in 10.0 mi SE 10.4 mph - N/A   Clear
10:58 PM 70.3 °F - 61.3 °F 73% 30.08 in 10.0 mi SE 10.4 mph - N/A   Mostly Cloudy
11:58 PM 68.9 °F - 61.0 °F 76% 30.06 in 10.0 mi SE 11.5 mph - N/A   Clear